Location: Home
(42.5358°N, 72.7383°W)
Time: 15:32:51
(UTC-05:00)

Vanguard 3 - Pass Details

Date: 02 December 2021
Orbit: 508 x 3260 km, 33.3° (Epoch: 20 January)

Event Time Altitude Azimuth Distance (km) Brightness Sun altitude
Rises 08:07:05 0° 273° (W) 6,982 11.4 8.9°
Reaches altitude 10° 08:12:24 10° 268° (W) 5,694 11.1 9.6°
Maximum altitude 08:27:18 47° 203° (SSW) 2,541 10.1 11.6°
Drops below altitude 10° 08:36:14 10° 133° (SE) 3,494 13.6 12.7°
Sets 08:38:43 0° 126° (SE) 4,169 12.6 13.0°
